www.pogodaiklimat.ru

Погода и климат >> Архив погоды >> Россия >> Нижегородская область >> Нижний Новгород


АРХИВ ПОГОДЫ в Нижнем Новгороде

Время (UTC), дата Ветер
(напр.,м/с)
 
Видим.   Явления Облачность Т
(С)
Тd
(С)
f
(%)
Тe
(С)
Тes
(С)
Комфортность P
(гПа)
Po
(гПа)
Тmin
(С)
Tmax
(С)
R
(мм)
R24
(мм)
S
(см)
15 8.12 СВ 1-2
{3}
10 км слабый снег 10/10 300 м
[Sc]
-8.0 -9.4 90 -10 -10 по сезону 1017.1 996.7 -5.2 0.9
18 8.12 В 1-2
{3}
10 км {снег} 10/10 300 м
[Sc]
-8.2 -9.6 90 -11 -11 по сезону 1017.7 997.3
21 8.12 Ю 1-2
{3}
10 км слабый снег 10/10 300 м
[Sc]
-7.6 -8.9 90 -10 -10 по сезону 1018.3 997.8
00 9.12 Ю 1-2
{5}
10 км {снег} 10/10 300 м
[Sc]
-7.8 -9.2 90 -10 -10 по сезону 1018.2 997.7
03 9.12 ЮВ 1-2
{4}
10 км 10/6 300 м
[Sc As op]
-7.8 -9.2 90 -10 -10 по сезону 1018.1 997.6 -8.6 0.2 21
06 9.12 ЮВ 2-3
{4}
10 км 8/3 600 м
[Sc Ac trans Ci fib]
-7.7 -9.1 90 -12 -12 по сезону 1017.6 997.2
09 9.12 ЮВ 3-5
{5}
10 км 10/4 600 м
[Sc Ac As]
-6.1 -8.8 81 -12 -12 по сезону 1017.3 997.1
12 9.12 Ю 1-3
{5}
10 км 10/8 300 м
[Sc Ac As]
-5.5 -8.1 82 -8 -8 по сезону 1017.3 997.1
15 9.12 ЮВ 2-4
{4}
10 км 10/10 300 м
[Sc]
-5.1 -7.2 85 -9 -9 по сезону 1017.7 997.5 -5.0
18 9.12 Ю 2-4
{5}
10 км 10/10 300 м
[Sc]
-5.0 -7.1 85 -9 -9 по сезону 1017.9 997.7
21 9.12 ЮВ 1-2
{4}
10 км 10/10 300 м
[Sc]
-4.6 -5.9 91 -7 -7 по сезону 1018.5 998.3
00 10.12 ЮВ 2-4
{5}
10 км 9/9 300 м
[Sc]
-4.4 -5.7 91 -9 -9 по сезону 1018.5 998.3
03 10.12 ЮВ 1-4
{5}
10 км 10/10 300 м
[St]
-4.0 -5.2 91 -6 -6 по сезону 1018.9 998.7 -5.5 19
06 10.12 ЮВ 2-4
{5}
10 км 10/10 300 м
[St]
-3.6 -4.7 92 -8 -8 по сезону 1019.1 999.0
09 10.12 ЮВ 2-4
{5}
10 км 10/10 300 м
[St]
-2.3 -3.5 91 -6 -6 по сезону 1019.0 999.0
12 10.12 ЮВ 2-6
{7}
10 км 10/10 300 м
[St]
-2.1 -3.3 91 -6 -6 по сезону 1018.4 998.4
15 10.12 ЮВ 3-7
{8}
10 км 10/10 300 м
[St]
-2.1 -3.3 91 -7 -7 по сезону 1018.0 998.0 -2.0
18 10.12 ЮВ 4-8
{10}
10 км 10/10 300 м
[St]
-2.0 -3.5 89 -8 -8 по сезону 1017.1 997.2
21 10.12 ЮВ 3-7
{9}
10 км 10/10 300 м
[St]
-1.7 -3.1 90 -7 -7 по сезону 1017.2 997.3
00 11.12 ЮВ 3-9
{9}
10 км слабый переохл. дождь (гололёд) 10/10 300 м
[Frnb]
-0.9 -1.9 93 -6 -6 по сезону 1016.8 997.0
03 11.12 ЮВ 3-7
{9}
10 км {дождь} 10/10 300 м
[St]
-0.6 -1.2 96 -6 -6 по сезону 1016.4 996.6 -2.1 0.0 18
06 11.12 ЮВ 3-8
{8}
10 км {дождь} 9/6 300 м
[Sc Ac trans]
-0.4 -1.3 94 -5 -5 тепло 1017.0 997.2
09 11.12 ЮВ 3-7
{8}
10 км 9/4 300 м
[Sc Ci fib]
+0.2 -2.1 85 -4 -4 тепло 1016.6 996.8
12 11.12 ЮВ 3-7
{10}
10 км 10/10 300 м
[Sc]
+0.7 -1.3 86 -4 -4 тепло 1015.3 995.7
15 11.12 ЮВ 3-6
{9}
4000 м слабый снег 10/10 300 м
[Sc]
+0.2 -1.2 90 -5 -5 по сезону 1015.1 995.3 +0.9 0.6
18 11.12 ЮВ 4-8
{10}
4000 м слабый снег 10/10 300 м
[Sc]
+0.7 -0.7 90 -5 -5 тепло 1014.3 994.7
21 11.12 ЮВ 3-6
{9}
10 км слабый снег 9/9 300 м
[Sc]
+0.5 -1.5 86 -4 -4 тепло 1014.4 994.7
00 12.12 Ю 2-5
{8}
10 км слабый снег 10/10 300 м
[Sc]
+0.1 -1.0 92 -4 -4 тепло 1014.8 995.0
03 12.12 Ю 2-5
{7}
10 км {снег} 10/10 300 м
[Sc]
-0.1 -3.5 78 -4 -4 тепло 1016.1 996.3 -0.1 0.7 19
06 12.12 Ю 1-3
{5}
10 км слабый снег 10/8 300 м
[Sc Ci fib]
-0.6 -3.0 84 -3 -3 тепло 1018.0 998.1 -0.8
09 12.12 ЮВ 2-5
{5}
10 км слабый снег 9/8 300 м
[Frnb Ac cast]
-0.4 -1.9 90 -4 -4 тепло 1018.4 998.5
12 12.12 В 2-4
{5}
10 км слабый снег 10/10 300 м
[Frnb]
-0.8 -1.8 93 -5 -5 по сезону 1019.0 999.1
15 12.12 В 2-4
{5}
10 км {снег} 10/10 300 м
[Sc]
-0.9 -1.3 97 -5 -5 тепло 1019.6 999.7 +0.1 0.5
18 12.12 ЮВ 2-4
{5}
10 км 10/10 300 м
[Sc]
-0.2 -0.8 96 -4 -4 тепло 1019.0 999.1
21 12.12 ЮВ 3-6
{6}
10 км 10/10 300 м
[Sc]
-0.2 -0.8 96 -5 -5 тепло 1018.5 998.6
00 13.12 ЮВ 2-5
{8}
1000 м 10/10 200 м
[Sc]
+0.2 -0.3 96 -4 -4 тепло 1017.1 997.3
03 13.12 ЮВ 3-6
{7}
4000 м слабый дождь 10/10 200 м
[Sc]
+0.7 +0.1 96 -4 -4 тепло 1015.5 995.8 -0.9 0.5 17
06 13.12 ЮВ 3-7
{8}
4000 м слабый дождь 10/10 200 м
[Sc]
+1.0 +0.5 96 -4 -4 тепло 1014.9 995.3
09 13.12 ЮВ 2-8
{9}
10 км {дождь} 10/10 200 м
[St]
+1.1 +0.6 96 -3 -3 тепло 1014.1 994.5
12 13.12 ЮВ 2-6
{8}
700 м туман {дождь, морось} ?/? +1.1 +0.8 98 -3 -3 тепло 1013.0 993.4
15 13.12 Ю 1-4
{6}
2000 м в посл. час туман 10/10 100 м
[St]
+1.6 +1.3 98 -0 -0 тепло 1012.9 993.3 +1.6 3
18 13.12 ЮЗ 1-4
{6}
4000 м слабый дождь {туман} 10/10 200 м
[Frnb]
+1.9 +1.6 98 -0 -0 тепло 1013.8 994.2
21 13.12 ЮЗ 1-2
{4}
4000 м слабый дождь 10/10 200 м
[Frnb]
+1.9 +1.6 98 -0 -0 тепло 1013.9 994.3
00 14.12 ЮЗ 1-2
{4}
10 км слабый дождь 10/10 200 м
[Frnb]
+1.5 +1.2 98 -1 -1 тепло 1015.3 995.7
03 14.12 ЮЗ 1-2
{3}
4000 м слабый ливневой снег {дождь} 10/10 200 м
[Frnb]
+0.2 -0.1 98 -2 -2 тепло 1015.2 995.5 +0.2 8 15
06 14.12 ЮВ 1-3
{3}
4000 м ливневой снег {дождь} 10/10 200 м
[Frnb]
+0.2 -0.1 98 -2 -2 тепло 1014.5 994.8 +0.1
09 14.12 ЮВ 2-4
{4}
4000 м {ливн. осадки, дождь} 10/10 200 м
[St]
+1.4 +1.1 98 -2 -2 тепло 1013.3 993.7
12 14.12 ЮВ 3-5
{7}
1500 м слабый дождь {ливн. осадки} 10/10 100 м
[Frnb Ns]
+2.0 +1.7 98 -3 -3 тепло 1012.7 993.1
15 14.12 Ю 4-8
{8}
20 км слабый дождь 10/10 200 м
[Frnb Ns]
+2.8 +2.5 98 -2 -2 тепло 1012.8 993.3 +2.8 9
18 14.12 Ю 3-8
{10}
4000 м слабый дождь 10/10 200 м
[Frnb]
+2.6 +2.1 97 -2 -2 тепло 1012.8 993.3
21 14.12 Ю 3-6
{12}
4000 м слабый дождь 10/10 200 м
[Frnb]
+2.3 +1.5 94 -2 -2 тепло 1012.7 993.2
00 15.12 Ю 3-9
{12}
4000 м слабый дождь со снегом 10/10 200 м
[Frnb]
+0.9 +0.1 94 -4 -4 тепло 1012.8 993.2
03 15.12 ЮВ 3-8
{11}
4000 м слабый снег {дождь} 10/10 200 м
[Frnb]
+0.2 -0.1 98 -5 -5 тепло 1012.8 993.1 +0.1 10 12
06 15.12 Ю 3-8
{9}
4000 м {снег, дождь} 10/10 200 м
[St]
+0.6 +0.1 96 -4 -4 тепло 1014.0 994.3
09 15.12 Ю 4-11
{11}
10 км слабый ливневой дождь со снегом 10/10 200 м
[Cb cap]
+0.6 -0.5 92 -5 -5 тепло 1015.2 995.5
12 15.12 Ю 2-7
{13}
10 км в посл. час ливневой снег 10/10 200 м
[Cb cap]
+0.3 -1.1 90 -3 -3 тепло 1016.9 997.2

 

Местоположение метеостанции Нижний Новгород (Нижегородская область, Россия): широта 56.27 долгота 44.00 высота над уровнем моря 157 м.

В архиве по умолчанию представлена погода в Нижнем Новгороде за последнюю неделю. Архивные данные за месяц целиком и за предыдущие месяцы, начиная с января 2011 года, Вы можете получить, выбрав интересующий диапазон дат из раскрывающегося списка и нажав кнопку "Ввод!".

Внимание! Время в таблицах - всемирное. Для получения местного времени необходимо прибавить поправку, которая в Нижнем Новгороде равна 3 ч.

Смотрите также архив погоды в соседних городах и на ближайших метеорологических станциях:

Погода в Нижнем Новгороде аэропорт (Нижегородская область, Россия) (15 км)
Погода в Дальнем Константиново (Нижегородская область, Россия) (53 км)
Погода в Волжской ГМО (Нижегородская область, Россия) (57 км)
Погода в Семенове (Нижегородская область, Россия) (60 км)
Погода в Павлово (Нижегородская область, Россия) (70 км)
Погода в Лысково (Нижегородская область, Россия) (70 км)
Погода в Арзамасе (Нижегородская область, Россия) (101 км)
Погода в Воскресенском (Нижегородская область, Россия) (106 км)
Погода в Вязниках (Владимирская область, Россия) (113 км)
Погода в Красных Баках (Нижегородская область, Россия) (119 км)

Пояснения к столбцам:

Ветер - указаны скорость ветра в м/с - средняя за 10 мин, порывы в срок и между сроками (в фигурных скобках) и направление, откуда дует ветер: С - северный, СВ - северо-восточный, В - восточный, ЮВ - юго-восточный, Ю - южный, ЮЗ - юго-западный, З - западный, СЗ - северо-западный.
Видимость - горизонтальная дальность видимости в метрах или километрах. При видимости от 1 до 10 км при отсутствии осадков обычно наблюдается дымка, при ухудшении видимости до 1 км и менее - туман. В сухую погоду видимость может ухудшаться дымом, пылью или мглою.
Явления - указаны атмосферные явления, наблюдавшиеся в срок или в последний час перед сроком; фигурными скобками обозначены явления, наблюдавшиеся между сроками (за 1-3 часа до срока); квадратными скобками обозначены град или гололедные отложения с указанием их диаметра в мм.
Облачность - указаны через наклонную черту общая и нижняя облачность в баллах и высота нижней границы облаков в метрах; квадратными скобками обозначены формы облаков: Ci - перистые, Cs - перисто-слоистые, Cc - перисто-кучевые, Ac - высококучевые, As - высокослоистые, Sc - слоисто-кучевые, Ns - слоисто-дождевые, Cu - кучевые, Cb - кучево-дождевые. Подробнее классификацию облаков см. в Атласе облаков (PDF).
T - Температура воздуха - температура, измеренная на высоте 2 м над землей.
Td - Температура точки росы - температура, при понижении до которой содержащийся в воздухе водяной пар достигнет насыщения.
f - Относительная влажность воздуха - влажноcть воздуха, измеренная на высоте 2 м над землей.
Te - Эффективная температура - температура, которую ощущает одетый по сезону человек в тени. Характеристика душности погоды. При расчете учитывается влияние влажности воздуха и скорости ветра на теплоощущения человека.
Tes - Эффективная температура на солнце - температура, которую ощущает человек, с поправкой на солнечный нагрев. Характеристика знойности погоды. Зависит от высоты солнца над горизонтом, облачности и скорости ветра. Ночью, в пасмурную погоду, а также при ветре 12 м/с и более поправка равна нулю.
P - Атмосферное давление - приведенное к уровню моря атмосферное давление.
Po - Атмосферное давление - измеренное на уровне метеостанции атмосферное давление.
Tmin - Минимальная температура - минимум температуры воздуха на высоте 2 м над землей.
Tmax - Максимальная температура - максимум температуры воздуха на высоте 2 м над землей.
R - Количество осадков - Количество выпавших осадков за период времени, мм. При наведении курсора мыши на число - период времени, за который выпало указанное количество осадков.
R24 - Количество осадков - Количество выпавших осадков за 24 часа, мм.
S - Снежный покров - Высота снежного покрова, см. При наведении курсора мыши на число - состояние снежного покрова и степень покрытия местности в баллах.